sat.trackr.live / text

‹ back to catalog

GMS-T

NORAD 47346 · 2021-004A

PAYLOAD ACTIVE UNKNOWN

§ Identity

Operator
Country
GER
Launch date
2021-01-20
Launch site
RLLB
Launch vehicle
Mass (kg)
RCS (m²)

External: N2YO · Heavens-Above · Gunter

§ Orbital elements

Epoch: 2026-09-20T03:43:56.267040Z

Period
109.37 min
Inclination
90.1287°
Eccentricity
0.0004043
Mean motion
13.16659024 rev/d
Perigee alt
1,194.4 km
Apogee alt
1,200.6 km
Semi-major
7,575.6 km
B*
1.1277e-4
RAAN
242.9900°
Arg perigee
119.7237°
Mean anomaly
240.4297°
Rev number
27,209

§ Raw data

GMS-T1 47346U 21004A   26263.15551235  .00000051  00000+0  11277-3 0  99932 47346  90.1287 242.9900 0004043 119.7237 240.4297 13.16659024272095

JSON: /api/v1/satellites/47346 · /tle

For live sub-satellite position, see the globe view (requires WebGL).

§ Visibility from observer

Set your observer location to see the next 7 days of passes ≥ 10°. The values pass through the URL so the page stays shareable.

No JS? Fill the form by hand. The geolocation button needs JavaScript.